Denison, IA

7:16 PM CST on November 19, 2019 (GMT -0600)
Denison Municipal

Weather History for KDNS - October, 2019

Change the Weather History Date:

Tuesday, October 22, 2019

  Actual Average Record
Temperature  
Mean Temperature 43 °F -  
Max Temperature 53 °F 58 °F 82 °F (2003)
Min Temperature 33 °F 39 °F 26 °F (2005)
Degree Days  
Heating Degree Days 22    
Moisture  
Dew Point 34 °F    
Average Humidity 74    
Maximum Humidity 100    
Minimum Humidity 38    
Precipitation  
Precipitation 0.00 in - - ()
Sea Level Pressure  
Sea Level Pressure 29.81 in    
Wind  
Wind Speed 18 mph (WNW)    
Max Wind Speed 26 mph    
Max Gust Speed 40 mph    
Visibility 10 miles    
Events      
Averages and records for this station are not official NWS values.
T = Trace of Precipitation, MM = Missing Value Source: NWS Daily Summary

Daily Weather History Graph

Daily Weather History Graph

Search for Another Location

Airport or City:

Astronomy

Oct. 22, 2019 Rise Set
Actual Time 7:41 AM CDT 6:29 PM CDT
Civil Twilight 7:13 AM CDT 6:57 PM CDT
Nautical Twilight 6:40 AM CDT 7:30 PM CDT
Astronomical Twilight 6:08 AM CDT 8:02 PM CDT
Moon 12:44 AM CDT (10/22) 3:47 PM CDT (10/22)
Length of Visible Light 11h 44m
Length of Day
10h 47m
Last Quarter, 37% of the Moon is Illuminated
Oct 22
Last Quarter
Oct 27
New
Nov 4
First Quarter
Nov 12
Full
Nov 19
Last Quarter

Hourly Weather History & Observations

Time (CDT) Temp. Windchill Dew Point Humidity Pressure Visibility Wind Dir Wind Speed Gust Speed Precip Events Conditions
12:15 AM 44.6 °F 35.9 °F 42.8 °F 93% 29.64 in 10.0 mi WNW 23.0 mph 36.8 mph N/A   Overcast
12:35 AM 44.6 °F 35.7 °F 42.8 °F 93% 29.65 in 10.0 mi WNW 24.2 mph 31.1 mph N/A   Overcast
12:55 AM 44.6 °F 36.4 °F 42.8 °F 93% 29.65 in 10.0 mi WNW 20.7 mph 28.8 mph N/A   Overcast
1:15 AM 44.6 °F 36.4 °F 42.8 °F 93% 29.66 in 10.0 mi WNW 20.7 mph 29.9 mph N/A   Overcast
1:35 AM 44.6 °F 36.4 °F 42.8 °F 93% 29.67 in 10.0 mi WNW 20.7 mph 32.2 mph N/A   Overcast
1:55 AM 44.6 °F 35.9 °F 42.8 °F 93% 29.68 in 10.0 mi WNW 23.0 mph 31.1 mph N/A   Overcast
2:15 AM 44.6 °F 36.4 °F 41.0 °F 87% 29.68 in 10.0 mi WNW 20.7 mph 35.7 mph N/A   Overcast
2:35 AM 42.8 °F 34.0 °F 41.0 °F 93% 29.69 in 10.0 mi WNW 20.7 mph 35.7 mph N/A   Overcast
2:55 AM 42.8 °F 34.5 °F 39.2 °F 87% 29.70 in 10.0 mi WNW 18.4 mph 29.9 mph N/A   Overcast
3:15 AM 42.8 °F 34.8 °F 39.2 °F 87% 29.71 in 10.0 mi WNW 17.3 mph 40.3 mph N/A   Overcast
3:35 AM 42.8 °F 33.3 °F 39.2 °F 87% 29.71 in 10.0 mi WNW 24.2 mph 33.4 mph N/A   Overcast
3:55 AM 41.0 °F 30.9 °F 37.4 °F 87% 29.71 in 10.0 mi WNW 24.2 mph 35.7 mph N/A   Overcast
4:15 AM 41.0 °F 30.9 °F 37.4 °F 87% 29.72 in 10.0 mi WNW 24.2 mph 36.8 mph N/A   Overcast
4:35 AM 41.0 °F 32.5 °F 37.4 °F 87% 29.72 in 10.0 mi WNW 17.3 mph 27.6 mph N/A   Overcast
4:55 AM 39.2 °F 29.3 °F 37.4 °F 93% 29.73 in 10.0 mi WNW 20.7 mph 27.6 mph N/A   Overcast
5:15 AM 39.2 °F 30.2 °F 37.4 °F 93% 29.73 in 10.0 mi WNW 17.3 mph 31.1 mph N/A   Scattered Clouds
5:35 AM 39.2 °F 29.3 °F 35.6 °F 87% 29.74 in 10.0 mi WNW 20.7 mph 26.5 mph N/A   Partly Cloudy
5:55 AM 39.2 °F 29.6 °F 35.6 °F 87% 29.75 in 10.0 mi West 19.6 mph 27.6 mph N/A   Partly Cloudy
6:15 AM 37.4 °F 28.2 °F 35.6 °F 93% 29.77 in 10.0 mi WNW 16.1 mph 28.8 mph N/A   Clear
6:35 AM 37.4 °F 26.9 °F 35.6 °F 93% 29.77 in 10.0 mi WNW 20.7 mph 28.8 mph N/A   Mostly Cloudy
6:55 AM 39.2 °F 29.0 °F 35.6 °F 87% 29.78 in 10.0 mi West 21.9 mph 31.1 mph N/A   Overcast
7:15 AM 37.4 °F 26.6 °F 33.8 °F 87% 29.79 in 10.0 mi WNW 21.9 mph 29.9 mph N/A   Mostly Cloudy
7:35 AM 37.4 °F 27.8 °F 33.8 °F 87% 29.80 in 10.0 mi WNW 17.3 mph 29.9 mph N/A   Partly Cloudy
7:55 AM 37.4 °F 27.5 °F 33.8 °F 87% 29.80 in 10.0 mi West 18.4 mph 24.2 mph N/A   Clear
8:15 AM 37.4 °F 28.5 °F 33.8 °F 87% 29.81 in 10.0 mi West 15.0 mph 24.2 mph N/A   Clear
8:35 AM 37.4 °F 27.5 °F 33.8 °F 87% 29.82 in 10.0 mi West 18.4 mph 26.5 mph N/A   Clear
8:55 AM 39.2 °F 29.6 °F 33.8 °F 81% 29.82 in 10.0 mi West 19.6 mph 25.3 mph N/A   Clear
9:15 AM 39.2 °F 30.8 °F 33.8 °F 81% 29.84 in 10.0 mi West 15.0 mph 28.8 mph N/A   Clear
9:35 AM 41.0 °F 31.6 °F 33.8 °F 76% 29.84 in 10.0 mi West 20.7 mph 28.8 mph N/A   Clear
9:55 AM 41.0 °F 32.5 °F 32.0 °F 70% 29.85 in 10.0 mi WNW 17.3 mph 29.9 mph N/A   Clear
10:15 AM 42.8 °F 34.8 °F 32.0 °F 66% 29.85 in 10.0 mi West 17.3 mph 25.3 mph N/A   Clear
10:35 AM 42.8 °F 35.1 °F 32.0 °F 66% 29.86 in 10.0 mi West 16.1 mph 32.2 mph N/A   Clear
10:55 AM 44.6 °F 35.9 °F 32.0 °F 61% 29.87 in 10.0 mi West 23.0 mph 29.9 mph N/A   Clear
11:15 AM 44.6 °F 36.6 °F 32.0 °F 61% 29.87 in 10.0 mi West 19.6 mph 27.6 mph N/A   Clear
11:35 AM 46.4 °F 38.5 °F 30.2 °F 53% 29.87 in 10.0 mi West 21.9 mph 29.9 mph N/A   Clear
12:35 PM 50.0 °F - 30.2 °F 47% 29.87 in 10.0 mi WNW 20.7 mph 33.4 mph N/A   Clear
12:55 PM 50.0 °F - 30.2 °F 47% 29.87 in 10.0 mi WNW 24.2 mph 32.2 mph N/A   Clear
1:15 PM 50.0 °F - 30.2 °F 47% 29.86 in 10.0 mi WNW 18.4 mph 31.1 mph N/A   Clear
1:35 PM 50.0 °F - 30.2 °F 47% 29.86 in 10.0 mi WNW 18.4 mph 32.2 mph N/A   Clear
1:55 PM 50.0 °F - 30.2 °F 47% 29.86 in 10.0 mi WNW 21.9 mph 35.7 mph N/A   Clear
2:15 PM 51.8 °F - 28.4 °F 41% 29.86 in 10.0 mi WNW 19.6 mph 29.9 mph N/A   Clear
2:35 PM 51.8 °F - 26.6 °F 38% 29.86 in 10.0 mi WNW 26.5 mph 34.5 mph N/A   Clear
2:55 PM 51.8 °F - 28.4 °F 41% 29.86 in 10.0 mi WNW 25.3 mph 36.8 mph N/A   Clear
3:15 PM 51.8 °F - 28.4 °F 41% 29.86 in 10.0 mi WNW 20.7 mph 33.4 mph N/A   Partly Cloudy
3:35 PM 53.6 °F - 30.2 °F 41% 29.86 in 10.0 mi WNW 20.7 mph 29.9 mph N/A   Partly Cloudy
3:55 PM 51.8 °F - 30.2 °F 44% 29.86 in 10.0 mi WNW 25.3 mph 33.4 mph N/A   Scattered Clouds
4:15 PM 51.8 °F - 28.4 °F 41% 29.86 in 10.0 mi WNW 20.7 mph 32.2 mph N/A   Scattered Clouds
4:35 PM 53.6 °F - 28.4 °F 38% 29.86 in 10.0 mi WNW 24.2 mph 34.5 mph N/A   Scattered Clouds
4:55 PM 51.8 °F - 28.4 °F 41% 29.87 in 10.0 mi WNW 18.4 mph 32.2 mph N/A   Partly Cloudy
5:15 PM 51.8 °F - 30.2 °F 44% 29.87 in 10.0 mi WNW 10.4 mph 20.7 mph N/A   Partly Cloudy
5:35 PM 51.8 °F - 30.2 °F 44% 29.86 in 10.0 mi WNW 15.0 mph 23.0 mph N/A   Clear
5:55 PM 50.0 °F - 30.2 °F 47% 29.86 in 10.0 mi WNW 10.4 mph 16.1 mph N/A   Clear
6:15 PM 48.2 °F - 32.0 °F 54% 29.86 in 10.0 mi North - - N/A   Clear
6:35 PM 46.4 °F 42.9 °F 32.0 °F 57% 29.86 in 10.0 mi West 6.9 mph - N/A   Clear
6:55 PM 46.4 °F 43.5 °F 32.0 °F 57% 29.86 in 10.0 mi WNW 5.8 mph - N/A   Mostly Cloudy
7:15 PM 44.6 °F - 32.0 °F 61% 29.87 in 10.0 mi Calm Calm - N/A   Scattered Clouds
7:35 PM 42.8 °F 41.1 °F 33.8 °F 70% 29.86 in 10.0 mi SE 3.5 mph - N/A   Scattered Clouds
7:55 PM 41.0 °F - 33.8 °F 76% 29.86 in 10.0 mi Calm Calm - N/A   Scattered Clouds
8:15 PM 39.2 °F - 33.8 °F 81% 29.86 in 10.0 mi Calm Calm - N/A   Clear
8:35 PM 37.4 °F 34.9 °F 33.8 °F 87% 29.87 in 10.0 mi SE 3.5 mph - N/A   Clear
8:55 PM 37.4 °F - 33.8 °F 87% 29.87 in 10.0 mi Calm Calm - N/A   Clear
9:15 PM 35.6 °F - 35.6 °F 100% 29.86 in 10.0 mi Calm Calm - N/A   Clear
9:35 PM 35.6 °F 31.7 °F 35.6 °F 100% 29.86 in 10.0 mi SE 4.6 mph - N/A   Clear
10:15 PM 35.6 °F - 35.6 °F 100% 29.86 in 10.0 mi Calm Calm - N/A   Clear
10:35 PM 35.6 °F 32.8 °F 35.6 °F 100% 29.86 in 10.0 mi ESE 3.5 mph - N/A   Clear
10:55 PM 35.6 °F - 35.6 °F 100% 29.86 in 10.0 mi Calm Calm - N/A   Clear
11:15 PM 33.8 °F - 33.8 °F 100% 29.86 in 10.0 mi Calm Calm - N/A   Clear
11:35 PM 33.8 °F - 33.8 °F 100% 29.85 in 10.0 mi Calm Calm - N/A   Clear
11:55 PM 33.8 °F 29.6 °F 33.8 °F 100% 29.85 in 10.0 mi ESE 4.6 mph - N/A   Clear